Regional Weather Roundup
Issued by NWS Little Rock, AR

Home | Current Version | Previous Version | Graphics & Text | Print | Product List | Glossary On
Versions: 1 2 3 4 5 6 7 8 9 10 11 12 13 14 15 16 17 18 19 20 21 22 23 24 25 26 27 28 29 30 31 32 33 34 35 36 37 38 39 40 41 42 43 44 45 46 47 48 49 50
000
ASUS44 KLZK 211005
RWRLZK

WEATHER ROUNDUP FOR ARKANSAS
NATIONAL WEATHER SERVICE LITTLE ROCK AR
500 AM CDT THU AUG 21 2014

NOTE: "FAIR" INDICATES FEW OR NO CLOUDS BELOW 12,000 FEET WITH NO
SIGNIFICANT WEATHER AND/OR OBSTRUCTIONS TO VISIBILITY.

ARZ001-003-010-029-211100-
NORTHWEST ARKANSAS

CITY           SKY/WX    TMP DP  RH WIND       PRES   REMARKS
FAYETTEVILLE   CLEAR     74  70  87 S8        30.03R
FORT SMITH     CLEAR     75  71  87 NE5       30.00R
HARRISON       CLEAR     73  71  93 S6        30.05R
BENTONVILLE    CLEAR     75  70  83 S6        30.03R
ROGERS         CLEAR     75  68  78 SE7       30.04R
SILOAM SPGS    CLEAR     75  64  69 S7        30.02S
HIGHFILL       CLEAR     73  68  84 S7        30.02R
$$

ARZ004-005-016-211100-
NORTH CENTRAL ARKANSAS

CITY           SKY/WX    TMP DP  RH WIND       PRES   REMARKS
BATESVILLE     CLEAR     79  72  78 SW8       30.02S
FLIPPIN        CLEAR     72  66  83 CALM      30.03S
MTN HOME       CLEAR     73  70  90 S5        30.02S
$$

ARZ040-041-211100-
WEST CENTRAL ARKANSAS

CITY           SKY/WX    TMP DP  RH WIND       PRES   REMARKS
MENA           CLEAR     79  72  78 CALM      30.06R
MOUNT IDA      CLEAR     75  68  78 CALM      30.04R
$$

ARZ009-017-025-026-028-211100-
NORTHEAST ARKANSAS

CITY           SKY/WX    TMP DP  RH WIND       PRES   REMARKS
CORNING        FAIR      73  73 100 SW6       30.03R
JONESBORO      PTCLDY    77  72  84 SW9       30.03R
NEWPORT        PTCLDY    74  73  96 S8        30.04S
WALNUT RIDGE   CLEAR     75  72  88 S7        30.02S
BLYTHEVILLE    PTCLDY    76  74  93 S6        30.04R
$$

ARZ022-023-033-042-044-211100-
CENTRAL ARKANSAS

CITY           SKY/WX    TMP DP  RH WIND       PRES   REMARKS
LITTLE ROCK    CLEAR     76  69  79 SW8       30.05R
N LITTLE ROCK    N/A     76  72  89 SW6G16    30.05R
JACKSONVILLE   CLEAR     76  71  84 S7        30.04R
SEARCY           N/A     74  73  96 CALM        N/A
HOT SPRINGS    CLEAR     77  71  82 SW7       30.06R
RUSSELLVILLE   CLEAR     77  71  82 VRB3      30.02S
CLINTON        FAIR      70  70 100 CALM      30.05R FOG
$$

ARZ036-211100-
EAST ARKANSAS

CITY           SKY/WX    TMP DP  RH WIND       PRES   REMARKS
WEST MEMPHIS   PTCLDY    76  73  91 S6        30.04R
$$

ARZ050-053-066-070-073-211100-
SOUTHWEST ARKANSAS

CITY           SKY/WX    TMP DP  RH WIND       PRES   REMARKS
ARKADELPHIA    FAIR      73  72  97 CALM      30.06R
CAMDEN         CLEAR     72  68  88 CALM      30.05S
TEXARKANA      CLEAR     73  71  93 S3        30.05R
EL DORADO      CLEAR     72  70  93 CALM      30.06S
DE QUEEN       CLEAR     74  70  87 CALM      30.03R
$$

ARZ056-057-069-211100-
SOUTHEAST ARKANSAS

CITY           SKY/WX    TMP DP  RH WIND       PRES   REMARKS
PINE BLUFF     CLEAR     73  70  90 S5        30.06R
STUTTGART      CLEAR     73  70  88 S8        30.06S
MONTICELLO     CLEAR     77  72  84 SW7       30.07R

$$




USA.gov is the U.S. government's official web portal to all federal, state and local government web resources and services.